Accueil
METAR-TAF:

METAR-TAF

Aéroports :

Kekaha, Hawaï, États-Unis

Pacific Missile Range Facility

latitude: 22-02-11N, longitude: 159-47-11W, altitude: 4 m

Observation

Le bulletin a été fait il y a 52 minutes, à 07:56 UTC
Vent 3 kt de nord/nord-est
Température 22°C
Humidité 94%
Pression 1019 hPa
Visibilité: 16.1 km
Nuages fragmentés à une hauteur de 4900 ft
Ciel couvert à une hauteur de 6500 ft

METAR: PHBK 200756Z AUTO 02003KT 10SM BKN049 OVC065 22/21 A3008 RMK AO2 SLP187 T02170211

Heure: 22:48 (08:48 UTC)


TAF: absent

Observations et prévisions météorologiques de plus de 4000 aéroports (messages METAR et TAF).

Les stations disponibles sont représentées par des disques jaunes et rouges sur la carte.

Passer la souris dessus pour voir le nom de la station.

Cliquer dessus pour voir les observations et prévisions météorologiques.

Pour changer de carte: cliquez sur les boutons verts avec une croix noire pour zoomer, sur le bouton vert avec un tiret pour effectuer un zoom arrière, ou sur les flèches vertes pour les cartes adjacentes.


METAR-TAF: